| time (UTC) | temp F | wind direction | speed MPH | gust MPH | rain 1hr in | rain 24hr in | rain mn in | humidity % | barometer mb |
| 20260507124807 | 51 | 229 | 0.0 | 0.0 | 0.00 | 0.00 | 0.00 | 95 | 1016.3 |
| 20260507124303 | 51 | 227 | 0.0 | 0.0 | 0.00 | 0.00 | 0.00 | 95 | 1016.2 |
| 20260507123802 | 51 | 225 | 1.0 | 2.0 | 0.00 | 0.00 | 0.00 | 95 | 1016.5 |
| 20260507123259 | 51 | 224 | 0.0 | 0.0 | 0.00 | 0.00 | 0.00 | 95 | 1016.4 |
| 20260507122754 | 51 | 224 | 0.0 | 0.0 | 0.00 | 0.00 | 0.00 | 95 | 1016.5 |
| 20260507122250 | 51 | 225 | 0.0 | 1.0 | 0.00 | 0.00 | 0.00 | 95 | 1016.4 |
| 20260507121746 | 51 | 222 | 0.0 | 0.0 | 0.00 | 0.00 | 0.00 | 95 | 1016.4 |
| 20260507121242 | 51 | 228 | 0.0 | 0.0 | 0.00 | 0.00 | 0.00 | 95 | 1016.6 |
| 20260507120738 | 51 | 225 | 0.0 | 0.0 | 0.00 | 0.00 | 0.00 | 95 | 1016.5 |
| 20260507120235 | 51 | 223 | 0.0 | 0.0 | 0.00 | 0.00 | 0.00 | 95 | 1016.3 |
| 20260507115731 | 51 | 224 | 0.0 | 0.0 | 0.00 | 0.00 | 0.00 | 95 | 1016.6 |
| 20260507115227 | 51 | 224 | 0.0 | 0.0 | 0.00 | 0.00 | 0.00 | 95 | 1016.4 |
| 20260507114723 | 51 | 223 | 0.0 | 0.0 | 0.00 | 0.00 | 0.00 | 95 | 1016.5 |
| 20260507114221 | 52 | 224 | 0.0 | 1.0 | 0.00 | 0.00 | 0.00 | 95 | 1016.3 |
| 20260507113718 | 52 | 222 | 0.0 | 0.0 | 0.00 | 0.00 | 0.00 | 95 | 1016.6 |
| 20260507113215 | 52 | 223 | 2.0 | 2.0 | 0.00 | 0.00 | 0.00 | 95 | 1016.7 |
| 20260507112712 | 52 | 223 | 0.0 | 0.0 | 0.00 | 0.00 | 0.00 | 95 | 1016.8 |
| 20260507112209 | 52 | 224 | 0.0 | 1.0 | 0.00 | 0.00 | 0.00 | 94 | 1016.8 |
| 20260507111706 | 52 | 225 | 0.0 | 0.0 | 0.00 | 0.00 | 0.00 | 94 | 1016.8 |
| 20260507111203 | 52 | 226 | 0.0 | 0.0 | 0.00 | 0.00 | 0.00 | 94 | 1016.9 |
| 20260507110659 | 52 | 240 | 0.0 | 0.0 | 0.00 | 0.00 | 0.00 | 94 | 1016.8 |
| 20260507110156 | 52 | 248 | 0.0 | 0.0 | 0.00 | 0.00 | 0.00 | 94 | 1016.8 |
| 20260507105653 | 52 | 249 | 1.0 | 2.0 | 0.00 | 0.00 | 0.00 | 94 | 1017.0 |
| 20260507105149 | 52 | 247 | 0.0 | 0.0 | 0.00 | 0.00 | 0.00 | 94 | 1017.0 |
| 20260507104647 | 52 | 247 | 0.0 | 0.0 | 0.00 | 0.00 | 0.00 | 94 | 1016.8 |
| 20260507104142 | 52 | 247 | 1.0 | 1.0 | 0.00 | 0.00 | 0.00 | 94 | 1016.8 |
| 20260507103639 | 52 | 247 | 1.0 | 1.0 | 0.00 | 0.00 | 0.00 | 94 | 1016.9 |
| 20260507103136 | 52 | 253 | 1.0 | 1.0 | 0.00 | 0.00 | 0.00 | 94 | 1016.9 |
| 20260507102632 | 52 | 283 | 1.0 | 1.0 | 0.00 | 0.00 | 0.00 | 94 | 1017.2 |
| 20260507102128 | 52 | 285 | 0.0 | 0.0 | 0.00 | 0.00 | 0.00 | 94 | 1017.1 |
| 20260507101624 | 52 | 276 | 1.0 | 2.0 | 0.00 | 0.00 | 0.00 | 94 | 1017.1 |
| 20260507101120 | 52 | 269 | 1.0 | 2.0 | 0.00 | 0.00 | 0.00 | 93 | 1017.1 |
| 20260507100618 | 52 | 280 | 1.0 | 2.0 | 0.00 | 0.00 | 0.00 | 93 | 1017.2 |
| 20260507100116 | 52 | 284 | 0.0 | 1.0 | 0.00 | 0.00 | 0.00 | 93 | 1017.2 |
| 20260507095614 | 53 | 260 | 1.0 | 2.0 | 0.00 | 0.00 | 0.00 | 93 | 1017.5 |
| 20260507095110 | 52 | 261 | 2.0 | 2.0 | 0.00 | 0.00 | 0.00 | 93 | 1017.2 |
| 20260507094606 | 52 | 278 | 1.0 | 2.0 | 0.00 | 0.00 | 0.00 | 93 | 1017.2 |
| 20260507094103 | 53 | 280 | 1.0 | 1.0 | 0.00 | 0.00 | 0.00 | 93 | 1017.1 |
| 20260507093601 | 53 | 276 | 1.0 | 1.0 | 0.00 | 0.00 | 0.00 | 93 | 1017.3 |
| 20260507093059 | 53 | 282 | 1.0 | 1.0 | 0.00 | 0.00 | 0.00 | 93 | 1017.2 |
| 20260507092555 | 53 | 270 | 2.0 | 2.0 | 0.00 | 0.00 | 0.00 | 93 | 1017.2 |
| 20260507092052 | 53 | 281 | 1.0 | 2.0 | 0.00 | 0.00 | 0.00 | 93 | 1017.4 |
| 20260507091549 | 53 | 280 | 1.0 | 2.0 | 0.00 | 0.00 | 0.00 | 92 | 1017.4 |
| 20260507091045 | 53 | 270 | 1.0 | 2.0 | 0.00 | 0.00 | 0.00 | 92 | 1017.3 |
| 20260507090541 | 53 | 290 | 0.0 | 1.0 | 0.00 | 0.00 | 0.00 | 92 | 1017.6 |
| 20260507090038 | 53 | 280 | 1.0 | 1.0 | 0.00 | 0.00 | 0.00 | 92 | 1017.6 |
| 20260507085535 | 53 | 270 | 2.0 | 2.0 | 0.00 | 0.00 | 0.00 | 92 | 1017.3 |
| 20260507085032 | 53 | 277 | 1.0 | 2.0 | 0.00 | 0.00 | 0.00 | 91 | 1017.6 |
| 20260507084528 | 54 | 286 | 0.0 | 1.0 | 0.00 | 0.00 | 0.00 | 91 | 1017.5 |
| 20260507084025 | 54 | 286 | 1.0 | 1.0 | 0.00 | 0.00 | 0.00 | 91 | 1017.7 |
| 20260507083521 | 54 | 284 | 1.0 | 1.0 | 0.00 | 0.00 | 0.00 | 90 | 1017.7 |
| 20260507083019 | 54 | 275 | 1.0 | 2.0 | 0.00 | 0.00 | 0.00 | 90 | 1017.7 |
| 20260507082515 | 54 | 281 | 1.0 | 1.0 | 0.00 | 0.00 | 0.00 | 90 | 1017.7 |
| 20260507082011 | 54 | 282 | 1.0 | 2.0 | 0.00 | 0.00 | 0.00 | 90 | 1017.8 |
| 20260507081507 | 54 | 287 | 0.0 | 1.0 | 0.00 | 0.00 | 0.00 | 89 | 1017.8 |
| 20260507081004 | 55 | 277 | 1.0 | 1.0 | 0.00 | 0.00 | 0.00 | 89 | 1017.9 |
| 20260507080500 | 55 | 273 | 2.0 | 2.0 | 0.00 | 0.00 | 0.00 | 89 | 1017.8 |
| 20260507075955 | 55 | 260 | 2.0 | 2.0 | 0.00 | 0.00 | 0.00 | 89 | 1017.8 |
| 20260507075452 | 55 | 278 | 1.0 | 2.0 | 0.00 | 0.00 | 0.00 | 89 | 1017.9 |
| 20260507074949 | 56 | 198 | 2.0 | 3.0 | 0.00 | 0.00 | 0.00 | 88 | 1017.7 |
| 20260507074446 | 55 | 228 | 3.0 | 3.0 | 0.00 | 0.00 | 0.00 | 90 | 1017.7 |
| 20260507073944 | 55 | 258 | 2.0 | 2.0 | 0.00 | 0.00 | 0.00 | 89 | 1017.9 |
| 20260507073440 | 55 | 242 | 2.0 | 2.0 | 0.00 | 0.00 | 0.00 | 89 | 1017.8 |
| 20260507072936 | 55 | 277 | 1.0 | 2.0 | 0.00 | 0.00 | 0.00 | 89 | 1018.1 |
| 20260507072434 | 55 | 266 | 2.0 | 2.0 | 0.00 | 0.00 | 0.00 | 89 | 1018.0 |
| 20260507071931 | 55 | 282 | 1.0 | 2.0 | 0.00 | 0.00 | 0.00 | 88 | 1018.1 |
| 20260507071428 | 55 | 255 | 2.0 | 3.0 | 0.00 | 0.00 | 0.00 | 88 | 1018.0 |
| 20260507070925 | 55 | 253 | 1.0 | 2.0 | 0.00 | 0.00 | 0.00 | 88 | 1018.0 |
| 20260507070423 | 55 | 280 | 1.0 | 2.0 | 0.00 | 0.00 | 0.00 | 88 | 1018.0 |
| 20260507065919 | 55 | 273 | 1.0 | 2.0 | 0.00 | 0.00 | 0.00 | 87 | 1018.1 |
| 20260507065416 | 56 | 273 | 1.0 | 1.0 | 0.00 | 0.00 | 0.00 | 87 | 1018.1 |
| 20260507064913 | 56 | 243 | 2.0 | 2.0 | 0.00 | 0.00 | 0.00 | 87 | 1018.0 |
| 20260507064411 | 56 | 248 | 2.0 | 2.0 | 0.00 | 0.00 | 0.00 | 88 | 1018.3 |
| 20260507063909 | 56 | 278 | 1.0 | 2.0 | 0.00 | 0.00 | 0.00 | 87 | 1018.0 |
| 20260507063406 | 56 | 244 | 2.0 | 2.0 | 0.00 | 0.00 | 0.00 | 87 | 1018.1 |
| 20260507062903 | 56 | 250 | 2.0 | 2.0 | 0.00 | 0.00 | 0.00 | 87 | 1018.0 |
| 20260507062359 | 56 | 281 | 0.0 | 1.0 | 0.00 | 0.00 | 0.00 | 87 | 1018.0 |
| 20260507061857 | 56 | 274 | 1.0 | 2.0 | 0.00 | 0.00 | 0.00 | 86 | 1017.9 |
| 20260507061355 | 56 | 283 | 1.0 | 2.0 | 0.00 | 0.00 | 0.00 | 86 | 1018.0 |
| 20260507060853 | 56 | 280 | 1.0 | 1.0 | 0.00 | 0.00 | 0.00 | 86 | 1018.0 |
| 20260507060349 | 56 | 254 | 2.0 | 2.0 | 0.00 | 0.00 | 0.00 | 86 | 1018.0 |
| 20260507055846 | 56 | 281 | 1.0 | 2.0 | 0.00 | 0.00 | 0.00 | 86 | 1018.0 |
| 20260507055341 | 57 | 282 | 0.0 | 1.0 | 0.00 | 0.00 | 0.00 | 86 | 1017.9 |
| 20260507054838 | 57 | 261 | 1.0 | 3.0 | 0.00 | 0.00 | 0.00 | 86 | 1018.0 |
| 20260507054334 | 57 | 271 | 1.0 | 2.0 | 0.00 | 0.00 | 0.00 | 85 | 1018.0 |
| 20260507053832 | 57 | 277 | 1.0 | 1.0 | 0.00 | 0.00 | 0.00 | 84 | 1018.1 |
| 20260507053329 | 59 | 283 | 0.0 | 1.0 | 0.00 | 0.00 | 0.00 | 84 | 1018.0 |
| 20260507052828 | 59 | 280 | 1.0 | 1.0 | 0.00 | 0.00 | 0.00 | 84 | 1018.3 |
| 20260507052324 | 59 | 262 | 2.0 | 3.0 | 0.00 | 0.00 | 0.00 | 84 | 1018.2 |
| 20260507051822 | 59 | 261 | 2.0 | 3.0 | 0.00 | 0.00 | 0.00 | 85 | 1018.0 |
| 20260507051320 | 58 | 216 | 3.0 | 5.0 | 0.00 | 0.00 | 0.00 | 85 | 1018.2 |
| 20260507050816 | 59 | 241 | 4.0 | 6.0 | 0.00 | 0.00 | 0.00 | 85 | 1018.2 |
| 20260507050312 | 59 | 257 | 3.0 | 5.0 | 0.00 | 0.00 | 0.00 | 85 | 1018.0 |
| 20260507045810 | 59 | 246 | 2.0 | 5.0 | 0.00 | 0.00 | 0.00 | 85 | 1018.0 |
| 20260507045307 | 59 | 150 | 4.0 | 6.0 | 0.00 | 0.00 | 0.00 | 84 | 1018.0 |
| 20260507044803 | 59 | 181 | 3.0 | 5.0 | 0.00 | 0.00 | 0.00 | 84 | 1018.0 |
| 20260507044259 | 59 | 232 | 2.0 | 7.0 | 0.00 | 0.00 | 0.00 | 84 | 1017.8 |
| 20260507043755 | 59 | 213 | 5.0 | 7.0 | 0.00 | 0.00 | 0.00 | 83 | 1017.8 |
| 20260507043252 | 59 | 248 | 4.0 | 7.0 | 0.00 | 0.00 | 0.00 | 83 | 1017.8 |
| 20260507042749 | 59 | 222 | 4.0 | 6.0 | 0.00 | 0.00 | 0.00 | 83 | 1017.6 |
| 20260507042244 | 59 | 182 | 3.0 | 7.0 | 0.00 | 0.00 | 0.00 | 82 | 1017.7 |
| 20260507041742 | 59 | 223 | 5.0 | 8.0 | 0.00 | 0.00 | 0.00 | 81 | 1017.6 |
| 20260507041238 | 60 | 242 | 5.0 | 8.0 | 0.00 | 0.00 | 0.00 | 81 | 1017.7 |
| 20260507040735 | 60 | 249 | 4.0 | 7.0 | 0.00 | 0.00 | 0.00 | 80 | 1017.8 |
| 20260507040231 | 60 | 273 | 6.0 | 10.0 | 0.00 | 0.00 | 0.00 | 79 | 1017.7 |
| 20260507035727 | 60 | 214 | 4.0 | 9.0 | 0.00 | 0.00 | 0.00 | 79 | 1017.7 |
| 20260507035223 | 60 | 276 | 5.0 | 7.0 | 0.00 | 0.00 | 0.00 | 78 | 1017.5 |
| 20260507034720 | 60 | 172 | 9.0 | 11.0 | 0.00 | 0.00 | 0.00 | 77 | 1017.5 |
| 20260507034217 | 60 | 169 | 4.0 | 9.0 | 0.00 | 0.00 | 0.00 | 77 | 1017.3 |
| 20260507033716 | 61 | 203 | 5.0 | 10.0 | 0.00 | 0.00 | 0.00 | 76 | 1017.1 |
| 20260507033213 | 61 | 123 | 6.0 | 9.0 | 0.00 | 0.00 | 0.00 | 75 | 1017.2 |
| 20260507032710 | 61 | 252 | 5.0 | 9.0 | 0.00 | 0.00 | 0.00 | 74 | 1017.0 |
| 20260507032206 | 61 | 145 | 5.0 | 9.0 | 0.00 | 0.00 | 0.00 | 73 | 1017.1 |
| 20260507031703 | 62 | 213 | 5.0 | 8.0 | 0.00 | 0.00 | 0.00 | 73 | 1016.9 |
| 20260507031159 | 62 | 216 | 6.0 | 10.0 | 0.00 | 0.00 | 0.00 | 72 | 1016.9 |
| 20260507030656 | 62 | 159 | 3.0 | 8.0 | 0.00 | 0.00 | 0.00 | 71 | 1016.9 |
| 20260507030154 | 62 | 233 | 3.0 | 8.0 | 0.00 | 0.00 | 0.00 | 70 | 1017.0 |
| 20260507025651 | 63 | 232 | 7.0 | 9.0 | 0.00 | 0.00 | 0.00 | 69 | 1016.9 |
| 20260507025148 | 63 | 263 | 4.0 | 9.0 | 0.00 | 0.00 | 0.00 | 69 | 1016.9 |
| 20260507024646 | 63 | 45 | 4.0 | 7.0 | 0.00 | 0.00 | 0.00 | 68 | 1016.8 |
| 20260507024143 | 64 | 224 | 3.0 | 8.0 | 0.00 | 0.00 | 0.00 | 67 | 1016.8 |
| 20260507023638 | 64 | 237 | 5.0 | 7.0 | 0.00 | 0.00 | 0.00 | 66 | 1016.7 |
| 20260507023136 | 64 | 243 | 3.0 | 10.0 | 0.00 | 0.00 | 0.00 | 66 | 1016.8 |
| 20260507022633 | 65 | 172 | 7.0 | 9.0 | 0.00 | 0.00 | 0.00 | 66 | 1016.7 |
| 20260507022128 | 65 | 235 | 6.0 | 9.0 | 0.00 | 0.00 | 0.00 | 65 | 1016.6 |
| 20260507021625 | 65 | 250 | 6.0 | 10.0 | 0.00 | 0.00 | 0.00 | 65 | 1016.6 |
| 20260507021120 | 66 | 193 | 7.0 | 10.0 | 0.00 | 0.00 | 0.00 | 64 | 1016.3 |
| 20260507020619 | 66 | 199 | 3.0 | 14.0 | 0.00 | 0.00 | 0.00 | 64 | 1016.3 |
| 20260507020115 | 66 | 59 | 5.0 | 13.0 | 0.00 | 0.00 | 0.00 | 64 | 1016.4 |
| 20260507015614 | 66 | 164 | 7.0 | 13.0 | 0.00 | 0.00 | 0.00 | 64 | 1016.3 |
| 20260507015111 | 66 | 204 | 3.0 | 16.0 | 0.00 | 0.00 | 0.00 | 64 | 1016.1 |
| 20260507014607 | 67 | 237 | 8.0 | 14.0 | 0.00 | 0.00 | 0.00 | 64 | 1016.1 |
| 20260507014103 | 67 | 199 | 5.0 | 14.0 | 0.00 | 0.00 | 0.00 | 64 | 1016.1 |
| 20260507013600 | 67 | 245 | 4.0 | 11.0 | 0.00 | 0.00 | 0.00 | 64 | 1016.1 |
| 20260507013057 | 67 | 178 | 3.0 | 11.0 | 0.00 | 0.00 | 0.00 | 63 | 1016.1 |
| 20260507012554 | 68 | 57 | 5.0 | 13.0 | 0.00 | 0.00 | 0.00 | 63 | 1016.0 |
| 20260507012049 | 68 | 223 | 7.0 | 10.0 | 0.00 | 0.00 | 0.00 | 63 | 1015.7 |
| 20260507011548 | 68 | 237 | 7.0 | 10.0 | 0.00 | 0.00 | 0.00 | 63 | 1015.8 |
| 20260507011044 | 69 | 154 | 3.0 | 14.0 | 0.00 | 0.00 | 0.00 | 62 | 1016.0 |
| 20260507010538 | 69 | 190 | 7.0 | 11.0 | 0.00 | 0.00 | 0.00 | 61 | 1015.8 |
| 20260507010035 | 70 | 208 | 6.0 | 13.0 | 0.00 | 0.00 | 0.00 | 61 | 1016.0 |
| 20260507005533 | 70 | 221 | 9.0 | 11.0 | 0.00 | 0.00 | 0.00 | 62 | 1015.8 |
| 20260507005028 | 70 | 213 | 6.0 | 14.0 | 0.00 | 0.00 | 0.00 | 61 | 1015.6 |
| 20260507004526 | 71 | 201 | 5.0 | 10.0 | 0.00 | 0.00 | 0.00 | 61 | 1015.7 |
| 20260507004023 | 71 | 210 | 3.0 | 15.0 | 0.00 | 0.00 | 0.00 | 61 | 1015.6 |
| 20260507003519 | 71 | 233 | 6.0 | 9.0 | 0.00 | 0.00 | 0.00 | 61 | 1015.6 |
| 20260507003014 | 71 | 75 | 6.0 | 9.0 | 0.00 | 0.00 | 0.00 | 60 | 1015.7 |
| 20260507002510 | 71 | 139 | 5.0 | 11.0 | 0.00 | 0.00 | 0.00 | 61 | 1015.6 |
| 20260507002007 | 72 | 268 | 9.0 | 15.0 | 0.00 | 0.00 | 0.00 | 60 | 1015.5 |
| 20260507001503 | 72 | 355 | 6.0 | 10.0 | 0.00 | 0.00 | 0.00 | 60 | 1015.6 |
| 20260507001001 | 72 | 196 | 5.0 | 11.0 | 0.00 | 0.00 | 0.00 | 59 | 1015.3 |
| 20260507000456 | 72 | 128 | 7.0 | 11.0 | 0.00 | 0.00 | 0.00 | 59 | 1015.2 |
| 20260506235952 | 73 | 119 | 5.0 | 9.0 | 0.00 | 0.00 | 0.00 | 59 | 1015.2 |
| 20260506235450 | 73 | 197 | 7.0 | 10.0 | 0.00 | 0.00 | 0.00 | 58 | 1015.2 |
| 20260506234946 | 74 | 254 | 5.0 | 11.0 | 0.00 | 0.00 | 0.00 | 58 | 1015.3 |
| 20260506234443 | 73 | 140 | 4.0 | 10.0 | 0.00 | 0.00 | 0.00 | 58 | 1015.4 |
| 20260506233941 | 73 | 258 | 6.0 | 13.0 | 0.00 | 0.00 | 0.00 | 58 | 1015.1 |
| 20260506233437 | 73 | 229 | 4.0 | 16.0 | 0.00 | 0.00 | 0.00 | 59 | 1015.2 |
| 20260506232934 | 73 | 211 | 5.0 | 10.0 | 0.00 | 0.00 | 0.00 | 59 | 1015.3 |
| 20260506232430 | 74 | 85 | 3.0 | 10.0 | 0.00 | 0.00 | 0.00 | 58 | 1015.2 |
| 20260506231926 | 74 | 98 | 5.0 | 11.0 | 0.00 | 0.00 | 0.00 | 58 | 1015.2 |
| 20260506231423 | 75 | 172 | 7.0 | 18.0 | 0.00 | 0.00 | 0.00 | 58 | 1015.3 |
| 20260506230920 | 74 | 123 | 9.0 | 14.0 | 0.00 | 0.00 | 0.00 | 58 | 1015.3 |
| 20260506230417 | 74 | 249 | 6.0 | 7.0 | 0.00 | 0.00 | 0.00 | 58 | 1015.2 |
| 20260506225913 | 74 | 145 | 3.0 | 11.0 | 0.00 | 0.00 | 0.00 | 58 | 1015.3 |
| 20260506225411 | 74 | 174 | 4.0 | 10.0 | 0.00 | 0.00 | 0.00 | 58 | 1015.5 |
| 20260506224908 | 74 | 176 | 6.0 | 11.0 | 0.00 | 0.00 | 0.00 | 58 | 1015.4 |
| 20260506224405 | 74 | 117 | 3.0 | 8.0 | 0.00 | 0.00 | 0.00 | 58 | 1015.6 |
| 20260506223901 | 74 | 297 | 5.0 | 8.0 | 0.00 | 0.00 | 0.00 | 58 | 1015.4 |
| 20260506223356 | 75 | 134 | 3.0 | 8.0 | 0.00 | 0.00 | 0.00 | 58 | 1015.6 |
| 20260506222854 | 75 | 257 | 5.0 | 13.0 | 0.00 | 0.00 | 0.00 | 58 | 1015.8 |
| 20260506222350 | 75 | 102 | 3.0 | 8.0 | 0.00 | 0.00 | 0.00 | 57 | 1015.7 |
| 20260506221848 | 75 | 245 | 7.0 | 15.0 | 0.00 | 0.00 | 0.00 | 57 | 1015.8 |
| 20260506221344 | 75 | 248 | 2.0 | 9.0 | 0.00 | 0.00 | 0.00 | 56 | 1015.8 |
| 20260506220842 | 75 | 232 | 6.0 | 11.0 | 0.00 | 0.00 | 0.00 | 56 | 1015.8 |
| 20260506220337 | 75 | 188 | 7.0 | 11.0 | 0.00 | 0.00 | 0.00 | 55 | 1015.8 |
| 20260506215834 | 75 | 243 | 6.0 | 10.0 | 0.00 | 0.00 | 0.00 | 56 | 1016.0 |
| 20260506215330 | 76 | 212 | 6.0 | 8.0 | 0.00 | 0.00 | 0.00 | 54 | 1016.0 |
| 20260506214826 | 75 | 185 | 8.0 | 14.0 | 0.00 | 0.00 | 0.00 | 54 | 1016.3 |
| 20260506214323 | 76 | 51 | 3.0 | 10.0 | 0.00 | 0.00 | 0.00 | 54 | 1016.3 |
| 20260506213822 | 76 | 83 | 3.0 | 8.0 | 0.00 | 0.00 | 0.00 | 54 | 1016.2 |
| 20260506213319 | 77 | 197 | 7.0 | 9.0 | 0.00 | 0.00 | 0.00 | 54 | 1016.3 |
| 20260506212816 | 76 | 41 | 3.0 | 8.0 | 0.00 | 0.00 | 0.00 | 52 | 1016.4 |
| 20260506212311 | 77 | 264 | 4.0 | 7.0 | 0.00 | 0.00 | 0.00 | 52 | 1016.5 |
| 20260506211806 | 77 | 67 | 3.0 | 8.0 | 0.00 | 0.00 | 0.00 | 52 | 1016.2 |
| 20260506211303 | 76 | 10 | 1.0 | 5.0 | 0.00 | 0.00 | 0.00 | 50 | 1016.4 |
| 20260506210801 | 78 | 251 | 7.0 | 9.0 | 0.00 | 0.00 | 0.00 | 48 | 1016.5 |
| 20260506210257 | 78 | 69 | 1.0 | 5.0 | 0.00 | 0.00 | 0.00 | 45 | 1016.4 |
| 20260506205754 | 79 | 72 | 3.0 | 5.0 | 0.00 | 0.00 | 0.00 | 43 | 1016.5 |
| 20260506205250 | 79 | 227 | 5.0 | 6.0 | 0.00 | 0.00 | 0.00 | 41 | 1016.5 |
| 20260506204747 | 77 | 349 | 1.0 | 2.0 | 0.00 | 0.00 | 0.00 | 42 | 1016.5 |
| 20260506204244 | 80 | 327 | 1.0 | 3.0 | 0.00 | 0.00 | 0.00 | 41 | 1016.6 |
| 20260506203742 | 80 | 9 | 1.0 | 5.0 | 0.00 | 0.00 | 0.00 | 42 | 1016.7 |
| 20260506203239 | 80 | 344 | 3.0 | 3.0 | 0.00 | 0.00 | 0.00 | 40 | 1016.9 |
| 20260506202736 | 78 | 343 | 0.0 | 1.0 | 0.00 | 0.00 | 0.00 | 42 | 1016.9 |
| 20260506202233 | 77 | 283 | 1.0 | 5.0 | 0.00 | 0.00 | 0.00 | 43 | 1016.9 |
| 20260506201730 | 77 | 121 | 2.0 | 3.0 | 0.00 | 0.00 | 0.00 | 43 | 1017.0 |
| 20260506201226 | 77 | 42 | 0.0 | 5.0 | 0.00 | 0.00 | 0.00 | 43 | 1016.9 |
| 20260506200723 | 78 | 3 | 5.0 | 7.0 | 0.00 | 0.00 | 0.00 | 43 | 1017.1 |
| 20260506200220 | 77 | 338 | 1.0 | 1.0 | 0.00 | 0.00 | 0.00 | 45 | 1017.0 |
| 20260506195716 | 77 | 19 | 5.0 | 6.0 | 0.00 | 0.00 | 0.00 | 44 | 1017.3 |
| 20260506195212 | 76 | 338 | 0.0 | 1.0 | 0.00 | 0.00 | 0.00 | 46 | 1017.3 |
| 20260506194705 | 75 | 128 | 3.0 | 3.0 | 0.00 | 0.00 | 0.00 | 45 | 1017.5 |
| 20260506194201 | 74 | 67 | 1.0 | 5.0 | 0.00 | 0.00 | 0.00 | 47 | 1017.5 |
| 20260506193658 | 75 | 356 | 1.0 | 5.0 | 0.00 | 0.00 | 0.00 | 47 | 1017.6 |
| 20260506193155 | 75 | 44 | 0.0 | 3.0 | 0.00 | 0.00 | 0.00 | 47 | 1017.7 |
| 20260506192652 | 76 | 349 | 1.0 | 1.0 | 0.00 | 0.00 | 0.00 | 46 | 1017.8 |
| 20260506192148 | 73 | 333 | 1.0 | 2.0 | 0.00 | 0.00 | 0.00 | 48 | 1017.9 |
| 20260506191645 | 74 | 14 | 1.0 | 3.0 | 0.00 | 0.00 | 0.00 | 47 | 1018.0 |
| 20260506191141 | 75 | 8 | 1.0 | 3.0 | 0.00 | 0.00 | 0.00 | 47 | 1018.0 |
| 20260506190639 | 74 | 64 | 0.0 | 1.0 | 0.00 | 0.00 | 0.00 | 47 | 1018.1 |
| 20260506190135 | 73 | 17 | 1.0 | 1.0 | 0.00 | 0.00 | 0.00 | 49 | 1018.1 |
| 20260506185633 | 71 | 264 | 1.0 | 3.0 | 0.00 | 0.00 | 0.00 | 50 | 1018.3 |
| 20260506185129 | 71 | 4 | 0.0 | 3.0 | 0.00 | 0.00 | 0.00 | 50 | 1018.2 |
| 20260506184626 | 71 | 326 | 2.0 | 6.0 | 0.00 | 0.00 | 0.00 | 50 | 1018.3 |
| 20260506184123 | 71 | 344 | 4.0 | 6.0 | 0.00 | 0.00 | 0.00 | 50 | 1018.4 |
| 20260506183620 | 71 | 344 | 0.0 | 1.0 | 0.00 | 0.00 | 0.00 | 50 | 1018.2 |
| 20260506183116 | 72 | 38 | 3.0 | 3.0 | 0.00 | 0.00 | 0.00 | 50 | 1018.3 |
| 20260506182614 | 71 | 357 | 0.0 | 2.0 | 0.00 | 0.00 | 0.00 | 51 | 1018.5 |
| 20260506182110 | 72 | 10 | 3.0 | 3.0 | 0.00 | 0.00 | 0.00 | 50 | 1018.5 |
| 20260506181608 | 71 | 346 | 0.0 | 5.0 | 0.00 | 0.00 | 0.00 | 51 | 1018.6 |
| 20260506181105 | 71 | 1 | 1.0 | 1.0 | 0.00 | 0.00 | 0.00 | 52 | 1018.6 |
| 20260506180602 | 71 | 356 | 3.0 | 6.0 | 0.00 | 0.00 | 0.00 | 53 | 1018.7 |
| 20260506180059 | 71 | 22 | 3.0 | 5.0 | 0.00 | 0.00 | 0.00 | 51 | 1018.7 |
| 20260506175554 | 68 | 359 | 1.0 | 2.0 | 0.00 | 0.00 | 0.00 | 55 | 1018.9 |
| 20260506175051 | 68 | 4 | 1.0 | 2.0 | 0.00 | 0.00 | 0.00 | 53 | 1019.1 |
| 20260506174550 | 69 | 357 | 2.0 | 3.0 | 0.00 | 0.00 | 0.00 | 52 | 1018.9 |
| 20260506174046 | 69 | 27 | 1.0 | 2.0 | 0.00 | 0.00 | 0.00 | 52 | 1018.8 |
| 20260506173544 | 68 | 8 | 1.0 | 3.0 | 0.00 | 0.00 | 0.00 | 55 | 1018.7 |
| 20260506173040 | 68 | 212 | 1.0 | 3.0 | 0.00 | 0.00 | 0.00 | 54 | 1018.8 |
| 20260506172538 | 67 | 351 | 0.0 | 2.0 | 0.00 | 0.00 | 0.00 | 56 | 1018.9 |
| 20260506172034 | 67 | 107 | 1.0 | 2.0 | 0.00 | 0.00 | 0.00 | 54 | 1018.8 |
| 20260506171531 | 67 | 117 | 3.0 | 5.0 | 0.00 | 0.00 | 0.00 | 55 | 1018.9 |
| 20260506171028 | 67 | 359 | 1.0 | 2.0 | 0.00 | 0.00 | 0.00 | 56 | 1018.9 |
| 20260506170526 | 68 | 8 | 0.0 | 2.0 | 0.00 | 0.00 | 0.00 | 55 | 1019.1 |
| 20260506170023 | 66 | 355 | 0.0 | 1.0 | 0.00 | 0.00 | 0.00 | 55 | 1018.9 |
| 20260506165522 | 66 | 354 | 0.0 | 2.0 | 0.00 | 0.00 | 0.00 | 52 | 1019.2 |
| 20260506165018 | 66 | 19 | 0.0 | 2.0 | 0.00 | 0.00 | 0.00 | 57 | 1018.9 |
| 20260506164514 | 65 | 301 | 1.0 | 2.0 | 0.00 | 0.00 | 0.00 | 58 | 1018.8 |
| 20260506164012 | 65 | 345 | 2.0 | 2.0 | 0.00 | 0.00 | 0.00 | 62 | 1019.1 |
| 20260506163508 | 64 | 355 | 1.0 | 1.0 | 0.00 | 0.00 | 0.00 | 64 | 1018.9 |
| 20260506163004 | 63 | 7 | 2.0 | 2.0 | 0.00 | 0.00 | 0.00 | 66 | 1019.1 |
| 20260506162500 | 63 | 316 | 1.0 | 2.0 | 0.00 | 0.00 | 0.00 | 65 | 1018.9 |
| 20260506161957 | 63 | 33 | 0.0 | 3.0 | 0.00 | 0.00 | 0.00 | 68 | 1018.9 |
| 20260506161455 | 63 | 4 | 1.0 | 3.0 | 0.00 | 0.00 | 0.00 | 68 | 1019.2 |
| 20260506160952 | 61 | 318 | 1.0 | 2.0 | 0.00 | 0.00 | 0.00 | 69 | 1019.2 |
| 20260506160449 | 61 | 6 | 0.0 | 1.0 | 0.00 | 0.00 | 0.00 | 69 | 1018.9 |
| 20260506155946 | 60 | 12 | 0.0 | 1.0 | 0.00 | 0.00 | 0.00 | 72 | 1019.3 |
| 20260506155444 | 61 | 346 | 0.0 | 1.0 | 0.00 | 0.00 | 0.00 | 73 | 1019.1 |
| 20260506153617 | 59 | 353 | 0.0 | 2.0 | 0.00 | 0.00 | 0.00 | 76 | 1019.2 |
| 20260506153114 | 58 | 348 | 0.0 | 1.0 | 0.00 | 0.00 | 0.00 | 78 | 1018.9 |
| 20260506152611 | 57 | 276 | 0.0 | 3.0 | 0.00 | 0.00 | 0.00 | 79 | 1018.9 |
| 20260506152109 | 57 | 23 | 0.0 | 1.0 | 0.00 | 0.00 | 0.00 | 80 | 1018.9 |
| 20260506151607 | 56 | 1 | 0.0 | 0.0 | 0.00 | 0.00 | 0.00 | 83 | 1019.3 |
| 20260506151103 | 55 | 354 | 0.0 | 0.0 | 0.00 | 0.00 | 0.00 | 86 | 1019.2 |
| 20260506150600 | 54 | 336 | 0.0 | 0.0 | 0.00 | 0.00 | 0.00 | 88 | 1019.2 |
| 20260506150057 | 53 | 348 | 0.0 | 0.0 | 0.00 | 0.00 | 0.00 | 92 | 1019.2 |
| 20260506145554 | 53 | 357 | 0.0 | 0.0 | 0.00 | 0.00 | 0.00 | 93 | 1018.9 |
| 20260506145051 | 52 | 2 | 0.0 | 1.0 | 0.00 | 0.00 | 0.00 | 95 | 1019.2 |
| 20260506144548 | 51 | 358 | 0.0 | 0.0 | 0.00 | 0.00 | 0.00 | 96 | 1019.2 |
| 20260506144045 | 51 | 348 | 0.0 | 0.0 | 0.00 | 0.00 | 0.00 | 97 | 1019.1 |
| 20260506143543 | 50 | 350 | 0.0 | 0.0 | 0.00 | 0.00 | 0.00 | 97 | 1019.1 |
| 20260506143041 | 50 | 352 | 0.0 | 0.0 | 0.00 | 0.00 | 0.00 | 97 | 1019.1 |
| 20260506142538 | 49 | 352 | 0.0 | 0.0 | 0.00 | 0.00 | 0.00 | 98 | 1018.9 |
| 20260506142037 | 49 | 352 | 0.0 | 0.0 | 0.00 | 0.00 | 0.00 | 98 | 1018.9 |
| 20260506141534 | 48 | 357 | 0.0 | 0.0 | 0.00 | 0.00 | 0.00 | 98 | 1018.8 |
| 20260506141032 | 48 | 348 | 0.0 | 0.0 | 0.00 | 0.00 | 0.00 | 98 | 1018.8 |
| 20260506140529 | 48 | 352 | 0.0 | 0.0 | 0.00 | 0.00 | 0.00 | 98 | 1018.9 |
| 20260506140026 | 48 | 356 | 0.0 | 0.0 | 0.00 | 0.00 | 0.00 | 98 | 1018.8 |
| 20260506135523 | 48 | 352 | 0.0 | 0.0 | 0.00 | 0.00 | 0.00 | 98 | 1018.8 |
| 20260506135019 | 48 | 3 | 0.0 | 0.0 | 0.00 | 0.00 | 0.00 | 98 | 1018.7 |
| 20260506134516 | 47 | 350 | 0.0 | 0.0 | 0.00 | 0.00 | 0.00 | 98 | 1018.8 |
| 20260506134012 | 47 | 345 | 0.0 | 0.0 | 0.00 | 0.00 | 0.00 | 98 | 1018.7 |
| 20260506133509 | 47 | 345 | 0.0 | 0.0 | 0.00 | 0.00 | 0.00 | 98 | 1018.7 |
| 20260506133006 | 47 | 328 | 0.0 | 0.0 | 0.00 | 0.00 | 0.00 | 98 | 1018.8 |
| 20260506132503 | 46 | 327 | 0.0 | 0.0 | 0.00 | 0.00 | 0.00 | 98 | 1018.7 |
| 20260506132000 | 46 | 326 | 0.0 | 0.0 | 0.00 | 0.00 | 0.00 | 98 | 1018.6 |
| 20260506131457 | 46 | 321 | 0.0 | 0.0 | 0.00 | 0.00 | 0.00 | 98 | 1018.3 |
| 20260506130954 | 46 | 318 | 0.0 | 0.0 | 0.00 | 0.00 | 0.00 | 98 | 1018.4 |
| 20260506130450 | 45 | 292 | 0.0 | 0.0 | 0.00 | 0.00 | 0.00 | 98 | 1018.3 |
| 20260506125948 | 45 | 331 | 0.0 | 0.0 | 0.00 | 0.00 | 0.00 | 98 | 1018.4 |
| 20260506125446 | 45 | 309 | 0.0 | 0.0 | 0.00 | 0.00 | 0.00 | 98 | 1018.4 |
| 20260506124944 | 45 | 321 | 0.0 | 0.0 | 0.00 | 0.00 | 0.00 | 98 | 1018.4 |